N301JT KTEB-KCMH

Flight info

Callsign N301JT
Flight time 1h 31m
Altitude 40000
Route ZIMMZ Q42 MIKYG Q480 AIR CLPRR3
Aircraft HDJT/L-SABDGRWY/H

Departure

Time 2026-05-04 01:31
Airport Teterboro Airport (KTEB)

Arrival

Time 2026-05-04 03:02
Airport John Glenn Columbus International Airport (KCMH)
Time Latitude Longitude Altitude Speed Heading
2026-05-04 01:17 40.84566 -74.06607 19 ft 0 kts 226°
2026-05-04 01:25 40.84561 -74.06613 18 ft 4 kts 226°
2026-05-04 01:26 40.84564 -74.06660 19 ft 7 kts 315°
2026-05-04 01:26 40.84609 -74.06713 19 ft 10 kts 318°
2026-05-04 01:26 40.84668 -74.06780 19 ft 10 kts 335°
2026-05-04 01:26 40.84725 -74.06737 19 ft 12 kts 47°
2026-05-04 01:27 40.84794 -74.06635 20 ft 17 kts 47°
2026-05-04 01:27 40.84878 -74.06512 22 ft 20 kts 48°
2026-05-04 01:27 40.84977 -74.06367 21 ft 22 kts 48°
2026-05-04 01:27 40.85076 -74.06220 15 ft 22 kts 48°
2026-05-04 01:28 40.85181 -74.06066 10 ft 23 kts 48°
2026-05-04 01:28 40.85286 -74.05912 8 ft 23 kts 48°
2026-05-04 01:28 40.85388 -74.05762 12 ft 21 kts 48°
2026-05-04 01:28 40.85482 -74.05623 13 ft 20 kts 49°
2026-05-04 01:29 40.85569 -74.05492 16 ft 18 kts 48°
2026-05-04 01:29 40.85652 -74.05373 14 ft 15 kts 47°
2026-05-04 01:29 40.85706 -74.05343 15 ft 7 kts 323°
2026-05-04 01:29 40.85744 -74.05389 15 ft 8 kts 317°
2026-05-04 01:30 40.85749 -74.05448 14 ft 9 kts 229°
2026-05-04 01:30 40.85571 -74.05711 13 ft 82 kts 228°
2026-05-04 01:30 40.85042 -74.06492 244 ft 127 kts 229°
2026-05-04 01:30 40.84369 -74.07477 487 ft 163 kts 229°
2026-05-04 01:31 40.83572 -74.08645 834 ft 173 kts 229°
2026-05-04 01:31 40.82766 -74.09817 1230 ft 176 kts 230°
2026-05-04 01:31 40.81860 -74.11026 1298 ft 192 kts 227°
2026-05-04 01:31 40.80894 -74.12270 1497 ft 198 kts 228°
2026-05-04 01:32 40.79923 -74.13540 1495 ft 194 kts 235°
2026-05-04 01:32 40.79443 -74.15146 1494 ft 187 kts 264°
2026-05-04 01:32 40.79340 -74.16818 1498 ft 184 kts 267°
2026-05-04 01:32 40.79270 -74.18382 1625 ft 177 kts 268°
2026-05-04 01:33 40.79191 -74.20057 1855 ft 176 kts 268°
2026-05-04 01:33 40.79196 -74.21655 2004 ft 179 kts 274°
2026-05-04 01:33 40.79261 -74.23326 2003 ft 181 kts 273°
2026-05-04 01:33 40.79293 -74.24970 2070 ft 177 kts 272°
2026-05-04 01:34 40.79309 -74.26066 2285 ft 188 kts 272°
2026-05-04 01:34 40.79342 -74.28348 3610 ft 181 kts 273°
2026-05-04 01:34 40.79368 -74.30004 4510 ft 184 kts 274°
2026-05-04 01:34 40.79393 -74.31706 5412 ft 185 kts 274°
2026-05-04 01:35 40.79421 -74.33485 6021 ft 201 kts 274°
2026-05-04 01:35 40.79446 -74.35312 6954 ft 200 kts 275°
2026-05-04 01:35 40.79473 -74.37170 7824 ft 203 kts 275°
2026-05-04 01:35 40.79500 -74.39054 8717 ft 206 kts 276°
2026-05-04 01:36 40.79527 -74.40936 9605 ft 209 kts 276°
2026-05-04 01:36 40.79554 -74.42876 10429 ft 212 kts 276°
2026-05-04 01:36 40.79581 -74.44846 11223 ft 216 kts 276°
2026-05-04 01:36 40.79608 -74.46850 12031 ft 220 kts 276°
2026-05-04 01:37 40.79635 -74.48890 12860 ft 224 kts 276°
2026-05-04 01:37 40.79663 -74.50973 13693 ft 228 kts 275°
2026-05-04 01:37 40.79690 -74.53057 14459 ft 231 kts 275°
2026-05-04 01:37 40.79717 -74.55194 15270 ft 233 kts 275°
2026-05-04 01:38 40.79744 -74.57329 16068 ft 235 kts 274°
2026-05-04 01:38 40.79771 -74.59478 16871 ft 236 kts 273°
2026-05-04 01:38 40.79798 -74.61664 17695 ft 238 kts 273°
2026-05-04 01:38 40.79825 -74.63864 18504 ft 240 kts 272°
2026-05-04 01:39 40.79851 -74.66085 19251 ft 242 kts 272°
2026-05-04 01:39 40.79877 -74.68315 20009 ft 244 kts 272°
2026-05-04 01:39 40.79903 -74.70536 20768 ft 245 kts 272°
2026-05-04 01:39 40.79929 -74.72810 21552 ft 247 kts 272°
2026-05-04 01:40 40.79954 -74.75093 22359 ft 249 kts 272°
2026-05-04 01:40 40.79982 -74.77365 23122 ft 251 kts 272°
2026-05-04 01:40 40.80004 -74.79683 23841 ft 253 kts 272°
2026-05-04 01:40 40.80028 -74.82023 24481 ft 255 kts 272°
2026-05-04 01:41 40.80052 -74.84354 25107 ft 257 kts 272°
2026-05-04 01:41 40.80077 -74.86726 25732 ft 260 kts 272°
2026-05-04 01:41 40.80101 -74.89127 26340 ft 262 kts 272°
2026-05-04 01:41 40.80124 -74.91525 26927 ft 264 kts 272°
2026-05-04 01:42 40.80147 -74.93953 27506 ft 266 kts 272°
2026-05-04 01:42 40.80170 -74.96423 28071 ft 268 kts 272°
2026-05-04 01:42 40.80192 -74.98879 28623 ft 270 kts 272°
2026-05-04 01:42 40.80215 -75.01357 29160 ft 272 kts 272°
2026-05-04 01:43 40.80237 -75.03884 29676 ft 275 kts 272°
2026-05-04 01:43 40.80258 -75.06400 30147 ft 277 kts 272°
2026-05-04 01:43 40.80279 -75.08959 30562 ft 278 kts 272°
2026-05-04 01:43 40.80286 -75.11508 31086 ft 275 kts 270°
2026-05-04 01:44 40.80074 -75.13998 31586 ft 276 kts 263°
2026-05-04 01:44 40.79701 -75.16484 32027 ft 276 kts 262°
2026-05-04 01:44 40.79343 -75.18979 32491 ft 275 kts 262°
2026-05-04 01:44 40.78994 -75.21433 32930 ft 275 kts 262°
2026-05-04 01:45 40.78632 -75.23917 33370 ft 275 kts 262°
2026-05-04 01:45 40.78268 -75.26401 33813 ft 274 kts 261°
2026-05-04 01:45 40.77548 -75.31338 34541 ft 274 kts 261°
2026-05-04 01:46 40.77190 -75.33790 34863 ft 274 kts 261°
2026-05-04 01:46 40.76826 -75.36267 35190 ft 274 kts 260°
2026-05-04 01:46 40.76309 -75.38664 35508 ft 276 kts 253°
2026-05-04 01:46 40.75528 -75.40999 35828 ft 278 kts 247°
2026-05-04 01:47 40.74665 -75.43279 36143 ft 278 kts 248°
2026-05-04 01:47 40.73821 -75.45570 36382 ft 280 kts 248°
2026-05-04 01:47 40.72967 -75.47871 36689 ft 280 kts 248°
2026-05-04 01:47 40.72098 -75.50192 37002 ft 280 kts 248°
2026-05-04 01:48 40.71245 -75.52472 37306 ft 280 kts 248°
2026-05-04 01:48 40.70380 -75.54787 37622 ft 280 kts 248°
2026-05-04 01:48 40.69527 -75.57068 37925 ft 280 kts 248°
2026-05-04 01:48 40.68662 -75.59379 38227 ft 280 kts 248°
2026-05-04 01:49 40.67795 -75.61691 38524 ft 280 kts 247°
2026-05-04 01:49 40.66940 -75.63970 38802 ft 279 kts 247°
2026-05-04 01:49 40.66083 -75.66257 38997 ft 279 kts 247°
2026-05-04 01:49 40.65218 -75.68559 39229 ft 279 kts 247°
2026-05-04 01:50 40.64355 -75.70853 39442 ft 279 kts 247°
2026-05-04 01:50 40.63499 -75.73129 39641 ft 280 kts 247°
2026-05-04 01:50 40.62640 -75.75411 39844 ft 280 kts 247°
2026-05-04 01:50 40.61772 -75.77715 39985 ft 283 kts 247°
2026-05-04 01:51 40.61183 -75.79279 39992 ft 288 kts 247°
2026-05-04 01:51 40.59979 -75.82474 39983 ft 297 kts 247°
2026-05-04 01:51 40.58095 -75.87437 39979 ft 310 kts 247°
2026-05-04 01:52 40.56463 -75.91730 39981 ft 319 kts 247°
2026-05-04 01:52 40.54107 -75.97919 39987 ft 330 kts 247°
2026-05-04 01:53 40.52372 -76.02468 39996 ft 336 kts 246°
2026-05-04 01:53 40.50255 -76.08011 39981 ft 342 kts 246°
2026-05-04 01:54 40.48108 -76.13619 39986 ft 347 kts 246°
2026-05-04 01:54 40.45923 -76.19320 39987 ft 351 kts 247°
2026-05-04 01:55 40.43726 -76.25038 39986 ft 354 kts 247°
2026-05-04 01:55 40.41501 -76.30818 39976 ft 356 kts 246°
2026-05-04 01:56 40.39256 -76.36638 39974 ft 358 kts 246°
2026-05-04 01:56 40.36989 -76.42503 39975 ft 360 kts 246°
2026-05-04 01:57 40.34725 -76.48351 39975 ft 361 kts 246°
2026-05-04 01:57 40.32401 -76.54222 39974 ft 362 kts 246°
2026-05-04 01:58 40.30061 -76.60041 39975 ft 362 kts 246°
2026-05-04 01:58 40.27730 -76.65872 39992 ft 362 kts 246°
2026-05-04 01:59 40.25394 -76.71684 39992 ft 362 kts 246°
2026-05-04 01:59 40.23042 -76.77531 39992 ft 362 kts 246°
2026-05-04 02:00 40.20688 -76.83370 39998 ft 362 kts 246°
2026-05-04 02:00 40.18345 -76.89171 40007 ft 362 kts 246°
2026-05-04 02:01 40.16003 -76.94960 40006 ft 360 kts 246°
2026-05-04 02:01 40.13653 -77.00755 40010 ft 360 kts 246°
2026-05-04 02:02 40.11314 -77.06514 40008 ft 359 kts 246°
2026-05-04 02:02 40.08972 -77.12267 40013 ft 359 kts 246°
2026-05-04 02:03 40.06633 -77.18004 40011 ft 359 kts 246°
2026-05-04 02:03 40.04278 -77.23769 40023 ft 359 kts 245°
2026-05-04 02:04 40.01929 -77.29507 40025 ft 358 kts 245°
2026-05-04 02:04 39.99587 -77.35220 40026 ft 358 kts 245°
2026-05-04 02:05 39.97325 -77.41013 40031 ft 355 kts 251°
2026-05-04 02:05 39.96025 -77.47162 40038 ft 352 kts 263°
2026-05-04 02:06 39.95851 -77.53502 40044 ft 352 kts 272°
2026-05-04 02:06 39.96050 -77.59912 40041 ft 352 kts 271°
2026-05-04 02:07 39.96249 -77.66275 40040 ft 353 kts 271°
2026-05-04 02:07 39.96446 -77.72711 40043 ft 354 kts 271°
2026-05-04 02:08 39.96638 -77.79088 40043 ft 354 kts 271°
2026-05-04 02:08 39.96828 -77.85532 40046 ft 355 kts 271°
2026-05-04 02:09 39.97014 -77.91976 40042 ft 355 kts 271°
2026-05-04 02:09 39.97196 -77.98399 40044 ft 355 kts 271°
2026-05-04 02:10 39.97376 -78.04818 40043 ft 356 kts 271°
2026-05-04 02:10 39.97523 -78.10204 40042 ft 357 kts 271°
2026-05-04 02:11 39.97725 -78.17746 40037 ft 357 kts 271°
2026-05-04 02:11 39.97894 -78.24209 40038 ft 358 kts 271°
2026-05-04 02:12 39.98060 -78.30697 40039 ft 358 kts 271°
2026-05-04 02:12 39.98223 -78.37194 40039 ft 358 kts 271°
2026-05-04 02:13 39.98382 -78.43686 40046 ft 358 kts 271°
2026-05-04 02:13 39.98538 -78.50191 40046 ft 358 kts 271°
2026-05-04 02:14 39.98690 -78.56692 40045 ft 358 kts 271°
2026-05-04 02:14 39.98838 -78.63174 40044 ft 359 kts 271°
2026-05-04 02:15 39.98982 -78.69651 40052 ft 359 kts 271°
2026-05-04 02:15 39.99124 -78.76182 40052 ft 359 kts 271°
2026-05-04 02:16 39.99262 -78.82699 40051 ft 359 kts 271°
2026-05-04 02:16 39.99396 -78.89217 40058 ft 359 kts 271°
2026-05-04 02:17 39.99526 -78.95708 40058 ft 359 kts 271°
2026-05-04 02:17 39.99653 -79.02214 40063 ft 360 kts 271°
2026-05-04 02:18 39.99777 -79.08765 40062 ft 360 kts 271°
2026-05-04 02:18 39.99896 -79.15279 40062 ft 360 kts 271°
2026-05-04 02:19 40.00012 -79.21790 40062 ft 360 kts 271°
2026-05-04 02:19 40.00124 -79.28313 40058 ft 360 kts 271°
2026-05-04 02:20 40.00232 -79.34816 40054 ft 360 kts 271°
2026-05-04 02:20 40.00338 -79.41354 40054 ft 360 kts 271°
2026-05-04 02:21 40.00440 -79.47903 40053 ft 360 kts 271°
2026-05-04 02:21 40.00536 -79.54404 40053 ft 360 kts 271°
2026-05-04 02:22 40.00630 -79.60961 40037 ft 360 kts 271°
2026-05-04 02:22 40.00720 -79.67478 40038 ft 361 kts 271°
2026-05-04 02:23 40.00807 -79.74025 40037 ft 361 kts 271°
2026-05-04 02:23 40.00890 -79.80590 40035 ft 361 kts 271°
2026-05-04 02:24 40.00969 -79.87132 40032 ft 361 kts 271°
2026-05-04 02:24 40.01045 -79.93675 40035 ft 362 kts 271°
2026-05-04 02:25 40.01117 -80.00248 40034 ft 362 kts 271°
2026-05-04 02:25 40.01185 -80.06782 40040 ft 362 kts 271°
2026-05-04 02:26 40.01250 -80.13366 40041 ft 362 kts 271°
2026-05-04 02:26 40.01311 -80.19909 40048 ft 361 kts 271°
2026-05-04 02:27 40.01367 -80.26440 40048 ft 361 kts 271°
2026-05-04 02:27 40.01421 -80.32972 39778 ft 357 kts 271°
2026-05-04 02:28 40.01445 -80.36184 39324 ft 352 kts 271°
2026-05-04 02:28 40.01470 -80.39382 38863 ft 351 kts 271°
2026-05-04 02:28 40.01493 -80.42575 38350 ft 351 kts 271°
2026-05-04 02:28 40.01514 -80.45740 37888 ft 351 kts 271°
2026-05-04 02:29 40.01536 -80.48930 37421 ft 351 kts 271°
2026-05-04 02:29 40.01556 -80.52123 36939 ft 351 kts 271°
2026-05-04 02:29 40.01575 -80.55311 36476 ft 351 kts 271°
2026-05-04 02:29 40.01594 -80.58462 36030 ft 350 kts 272°
2026-05-04 02:30 40.01612 -80.61655 35563 ft 350 kts 272°
2026-05-04 02:30 40.01628 -80.64810 35105 ft 351 kts 272°
2026-05-04 02:30 40.01645 -80.68003 34641 ft 351 kts 272°
2026-05-04 02:30 40.01660 -80.71205 34176 ft 351 kts 272°
2026-05-04 02:31 40.01673 -80.74374 33674 ft 351 kts 272°
2026-05-04 02:31 40.01683 -80.77564 33208 ft 351 kts 271°
2026-05-04 02:31 40.01485 -80.80722 32749 ft 353 kts 264°
2026-05-04 02:31 40.00965 -80.83871 32280 ft 355 kts 258°
2026-05-04 02:32 40.00137 -80.86929 31809 ft 357 kts 252°
2026-05-04 02:32 39.99225 -80.89906 31342 ft 356 kts 253°
2026-05-04 02:32 39.98324 -80.92923 30868 ft 356 kts 253°
2026-05-04 02:32 39.97418 -80.95946 30397 ft 356 kts 253°
2026-05-04 02:33 39.96512 -80.98928 29901 ft 356 kts 253°
2026-05-04 02:33 39.95596 -81.01945 29419 ft 357 kts 253°
2026-05-04 02:33 39.94692 -81.04929 28955 ft 359 kts 253°
2026-05-04 02:33 39.93770 -81.07973 28477 ft 360 kts 253°
2026-05-04 02:34 39.92847 -81.11004 28003 ft 358 kts 252°
2026-05-04 02:34 39.91933 -81.14002 27533 ft 355 kts 252°
2026-05-04 02:34 39.91033 -81.16959 27064 ft 352 kts 252°
2026-05-04 02:34 39.90134 -81.19909 26601 ft 349 kts 252°
2026-05-04 02:35 39.89236 -81.22852 26143 ft 347 kts 252°
2026-05-04 02:35 39.88342 -81.25780 25684 ft 345 kts 252°
2026-05-04 02:35 39.87454 -81.28683 25232 ft 344 kts 252°
2026-05-04 02:35 39.86578 -81.31542 24785 ft 343 kts 252°
2026-05-04 02:36 39.85693 -81.34430 24332 ft 342 kts 252°
2026-05-04 02:36 39.84809 -81.37308 23880 ft 341 kts 252°
2026-05-04 02:36 39.83939 -81.40141 23409 ft 339 kts 252°
2026-05-04 02:36 39.83063 -81.42992 22949 ft 337 kts 252°
2026-05-04 02:37 39.82198 -81.45798 22508 ft 336 kts 252°
2026-05-04 02:37 39.81330 -81.48616 22063 ft 334 kts 251°
2026-05-04 02:37 39.80500 -81.51439 21644 ft 332 kts 253°
2026-05-04 02:37 39.79690 -81.54216 21241 ft 331 kts 252°
2026-05-04 02:38 39.78864 -81.57020 20833 ft 329 kts 252°
2026-05-04 02:38 39.78050 -81.59799 20432 ft 328 kts 252°
2026-05-04 02:38 39.77251 -81.62529 20035 ft 326 kts 252°
2026-05-04 02:38 39.76440 -81.65298 19632 ft 325 kts 252°
2026-05-04 02:39 39.75638 -81.68027 19238 ft 324 kts 252°
2026-05-04 02:39 39.75103 -81.69845 18973 ft 323 kts 252°
2026-05-04 02:39 39.74039 -81.73463 18438 ft 321 kts 252°
2026-05-04 02:39 39.73509 -81.75263 18148 ft 320 kts 252°
2026-05-04 02:40 39.72457 -81.78829 17628 ft 316 kts 252°
2026-05-04 02:40 39.71926 -81.80627 17368 ft 315 kts 252°
2026-05-04 02:40 39.71149 -81.83259 16986 ft 314 kts 252°
2026-05-04 02:40 39.70363 -81.85920 16599 ft 313 kts 252°
2026-05-04 02:41 39.69591 -81.88526 16202 ft 312 kts 252°
2026-05-04 02:41 39.68812 -81.91157 15823 ft 311 kts 252°
2026-05-04 02:41 39.68037 -81.93769 15443 ft 309 kts 252°
2026-05-04 02:41 39.67268 -81.96385 15059 ft 308 kts 252°
2026-05-04 02:42 39.66507 -81.98952 14682 ft 307 kts 252°
2026-05-04 02:42 39.65733 -82.01540 14316 ft 306 kts 252°
2026-05-04 02:42 39.64965 -82.04117 13947 ft 305 kts 252°
2026-05-04 02:42 39.64208 -82.06654 13566 ft 304 kts 252°
2026-05-04 02:43 39.63444 -82.09213 13164 ft 302 kts 252°
2026-05-04 02:43 39.62686 -82.11747 12773 ft 300 kts 252°
2026-05-04 02:43 39.62017 -82.14299 12383 ft 295 kts 263°
2026-05-04 02:43 39.62090 -82.16882 12002 ft 290 kts 285°
2026-05-04 02:44 39.62857 -82.19300 11627 ft 288 kts 300°
2026-05-04 02:44 39.64095 -82.21302 11270 ft 288 kts 314°
2026-05-04 02:44 39.65601 -82.22988 10921 ft 276 kts 317°
2026-05-04 02:44 39.67003 -82.24591 10637 ft 261 kts 315°
2026-05-04 02:45 39.68319 -82.26207 10564 ft 259 kts 314°
2026-05-04 02:45 39.69620 -82.27796 10493 ft 260 kts 315°
2026-05-04 02:45 39.70952 -82.29390 10418 ft 260 kts 315°
2026-05-04 02:45 39.72285 -82.30990 10344 ft 259 kts 315°
2026-05-04 02:46 39.73520 -82.32652 10271 ft 257 kts 306°
2026-05-04 02:46 39.74492 -82.34607 10199 ft 256 kts 297°
2026-05-04 02:46 39.75259 -82.36688 10127 ft 256 kts 296°
2026-05-04 02:46 39.76049 -82.38773 10053 ft 256 kts 296°
2026-05-04 02:47 39.76829 -82.40826 9979 ft 254 kts 296°
2026-05-04 02:47 39.77596 -82.42871 9902 ft 250 kts 295°
2026-05-04 02:47 39.78362 -82.44918 9824 ft 251 kts 295°
2026-05-04 02:47 39.79132 -82.46972 9719 ft 255 kts 296°
2026-05-04 02:48 39.79907 -82.49037 9586 ft 255 kts 296°
2026-05-04 02:48 39.80685 -82.51116 9460 ft 255 kts 296°
2026-05-04 02:48 39.81455 -82.53172 9330 ft 254 kts 296°
2026-05-04 02:48 39.82230 -82.55247 9194 ft 254 kts 296°
2026-05-04 02:49 39.83005 -82.57322 9061 ft 254 kts 296°
2026-05-04 02:49 39.83771 -82.59370 8929 ft 253 kts 296°
2026-05-04 02:49 39.84542 -82.61440 8798 ft 253 kts 296°
2026-05-04 02:49 39.85312 -82.63503 8668 ft 252 kts 296°
2026-05-04 02:50 39.86067 -82.65530 8538 ft 252 kts 295°
2026-05-04 02:50 39.86837 -82.67596 8407 ft 252 kts 295°
2026-05-04 02:50 39.87592 -82.69627 8278 ft 251 kts 295°
2026-05-04 02:50 39.88355 -82.71680 8149 ft 251 kts 295°
2026-05-04 02:51 39.89115 -82.73724 8027 ft 250 kts 295°
2026-05-04 02:51 39.89701 -82.75751 8007 ft 226 kts 285°
2026-05-04 02:51 39.89955 -82.77670 8008 ft 210 kts 276°
2026-05-04 02:51 39.90048 -82.79544 8002 ft 207 kts 275°
2026-05-04 02:52 39.90160 -82.81419 8002 ft 208 kts 275°
2026-05-04 02:52 39.90264 -82.83312 7999 ft 208 kts 275°
2026-05-04 02:52 39.90362 -82.85176 7998 ft 208 kts 275°
2026-05-04 02:52 39.90461 -82.87061 7998 ft 208 kts 275°
2026-05-04 02:53 39.90562 -82.88953 7999 ft 208 kts 275°
2026-05-04 02:53 39.90660 -82.90829 7843 ft 210 kts 274°
2026-05-04 02:53 39.90760 -82.92715 7512 ft 207 kts 274°
2026-05-04 02:53 39.90859 -82.94590 7192 ft 206 kts 274°
2026-05-04 02:54 39.90955 -82.96435 6873 ft 206 kts 274°
2026-05-04 02:54 39.91053 -82.98315 6551 ft 206 kts 274°
2026-05-04 02:54 39.91149 -83.00176 6211 ft 205 kts 274°
2026-05-04 02:54 39.91244 -83.02003 5876 ft 204 kts 273°
2026-05-04 02:55 39.91434 -83.05691 5208 ft 202 kts 272°
2026-05-04 02:55 39.91527 -83.07498 4884 ft 202 kts 272°
2026-05-04 02:55 39.91621 -83.09333 4546 ft 202 kts 271°
2026-05-04 02:56 39.91713 -83.11139 4207 ft 201 kts 271°
2026-05-04 02:56 39.91806 -83.12959 3874 ft 200 kts 270°
2026-05-04 02:56 39.92108 -83.14727 3544 ft 206 kts 294°
2026-05-04 02:56 39.93177 -83.16036 3226 ft 221 kts 328°
2026-05-04 02:57 39.94719 -83.16382 3006 ft 236 kts 358°
2026-05-04 02:57 39.96371 -83.16043 3004 ft 243 kts 18°
2026-05-04 02:57 39.97725 -83.14852 2999 ft 232 kts 43°
2026-05-04 02:57 39.98811 -83.13354 3000 ft 223 kts 47°
2026-05-04 02:58 39.99860 -83.11847 3009 ft 224 kts 48°
2026-05-04 02:58 40.00570 -83.10095 3006 ft 220 kts 82°
2026-05-04 02:58 40.00505 -83.08219 3005 ft 197 kts 107°
2026-05-04 02:58 40.00293 -83.06520 3003 ft 183 kts 104°
2026-05-04 02:59 40.00168 -83.04943 2959 ft 167 kts 102°
2026-05-04 02:59 40.00069 -83.03466 2752 ft 160 kts 102°
2026-05-04 02:59 39.99994 -83.02037 2542 ft 155 kts 101°
2026-05-04 02:59 39.99920 -83.00689 2340 ft 144 kts 101°
2026-05-04 03:00 39.99845 -82.99440 2146 ft 135 kts 101°
2026-05-04 03:00 39.99779 -82.98223 1964 ft 135 kts 102°
2026-05-04 03:00 39.99707 -82.96994 1766 ft 136 kts 102°
2026-05-04 03:00 39.99627 -82.95792 1559 ft 129 kts 98°
2026-05-04 03:01 39.99576 -82.94660 1413 ft 120 kts 96°
2026-05-04 03:01 39.99520 -82.93595 1254 ft 115 kts 97°
2026-05-04 03:01 39.99460 -82.92564 1097 ft 112 kts 96°
2026-05-04 03:01 39.99404 -82.91574 954 ft 111 kts 97°
2026-05-04 03:02 39.99347 -82.90568 832 ft 109 kts 96°
2026-05-04 03:02 39.99297 -82.89710 820 ft 82 kts 94°
2026-05-04 03:02 39.99273 -82.89271 819 ft 24 kts 93°
2026-05-04 03:02 39.99222 -82.89126 819 ft 13 kts 173°
2026-05-04 03:03 39.99166 -82.89147 819 ft 7 kts 229°
2026-05-04 03:03 39.99147 -82.89209 819 ft 8 kts 225°
2026-05-04 03:03 39.99089 -82.89232 819 ft 7 kts 191°
2026-05-04 03:03 39.99076 -82.89283 819 ft 7 kts 276°
2026-05-04 03:04 39.99075 -82.89323 819 ft 1 kts 208°
2026-05-04 03:04 39.99070 -82.89324 819 ft 0 kts 185°